[[{"header":{"parameterUnit":"m.s-1","parameterCategory":1,"la1":30.2991,"la2":30.254,"lo1":-89.0895,"lo2":-89.0444,"dy":0.0017,"dx":0.0017,"nx":28,"ny":28,"refTime":"2025-04-19T21:00:00:Z","depth":0,"parameterNumber":2,"parameterNumberName":"U-component_of_WINDS"},"data":[0,0,0,0,0,0,0,0,0,0,0,0,0,0,0,0,0,0,0,0,0,0,0,0,0,0,0,0,0,0,0,0,0,0,0,0,0,0,0,0,0,0,0,0,0,0,0,0,0,0,0,0,0,0,0,0,0,0,-5.0294,-5.0295,0,-5.0406,-5.0407,-5.0408,-5.0378,-5.0376,-5.0374,-5.0372,-5.0486,-5.0491,-5.0496,0,0,0,0,0,0,0,0,0,0,0,0,0,-5.0058,-5.0062,-5.0294,-5.0296,-5.0297,-5.0405,-5.0407,-5.0408,-5.0379,-5.0376,-5.0373,-5.0371,-5.0484,-5.049,-5.0496,0,0,0,0,0,0,0,0,0,0,0,0,0,-5.0164,-5.0064,-5.0294,-5.0295,-5.0296,-5.0405,-5.0407,-5.0409,-5.0379,-5.0376,-5.0373,-5.037,-5.0482,-5.049,-5.0497,-5.0611,0,0,-5.0521,-5.0524,0,0,0,0,0,0,0,0,-5.0158,-5.0173,-5.0294,-5.0295,-5.0297,-5.0375,-5.0365,-5.0477,-5.038,-5.0348,-5.0372,-5.0368,-5.0452,-5.0462,-5.049,-5.0616,-5.0621,-5.0521,-5.0526,-5.0529,-5.0531,0,0,0,0,0,0,0,-5.0151,-5.0168,-5.0338,-5.0295,-5.0298,-5.0291,-5.0302,-5.0386,-5.0417,-5.035,-5.0349,-5.0362,-5.0452,-5.0482,-5.0492,-5.0623,-5.0521,-5.0528,-5.0533,-5.0536,-5.085,-5.0854,0,0,0,0,0,0,-5.0142,-5.0162,-5.0335,-5.0341,-5.0218,-5.0298,-5.0311,-5.0353,-5.0416,-5.0422,-5.0365,-5.036,-5.0471,-5.0483,-5.0496,-5.0633,-5.0529,-5.0536,-5.0541,-5.0847,-5.0851,-5.0855,0,0,0,0,0,0,-5.0137,-5.0158,-5.033,-5.0251,-5.0273,-5.0305,-5.0353,-5.0357,-5.0387,-5.0427,-5.0432,-5.039,-5.0469,-5.0485,-5.0583,-5.0637,-5.054,-5.0547,-5.0842,-5.0848,-5.0853,-5.0909,0,0,0,0,0,0,-5.013,-5.0156,-5.0199,-5.0252,-5.0277,-5.0415,-5.0357,-5.0362,-5.0401,-5.0396,-5.0452,-5.0458,-5.0467,-5.0572,-5.0591,-5.0646,-5.0553,-5.0837,-5.0845,-5.0851,-5.0902,-5.0916,-5.0927,0,0,0,0,0,-5.0122,-5.021,-5.0201,-5.0222,-5.0331,-5.0418,-5.0432,-5.044,-5.0405,-5.0449,-5.0475,-5.0457,-5.0629,-5.0582,-5.0603,-5.0661,-5.0834,-5.0843,-5.0851,-5.0897,-5.0913,-5.0927,0,0,0,0,0,0,-5.0161,-5.0217,-5.0208,-5.0316,-5.0362,-5.0413,-5.0468,-5.0458,-5.0515,-5.0508,-5.0517,-5.053,-5.0629,-5.0656,-5.0602,-5.0776,-5.0726,-5.0739,-5.0754,-5.077,-5.0782,-5.0773,-5.0559,0,0,0,0,0,-5.0183,-5.0248,-5.0293,-5.0384,-5.0408,-5.0434,-5.0472,-5.0475,-5.0524,-5.0543,-5.0576,-5.0624,-5.0689,-5.0732,-5.0794,-5.0908,-5.0919,-5.0958,-5.0971,-5.0981,-5.0991,-5.1054,-5.1071,-5.0883,-5.0883,-5.0883,0,0,-5.0227,-5.0266,-5.0306,-5.0393,-5.043,-5.0497,-5.0451,-5.0524,-5.0575,-5.0554,-5.0648,-5.0675,-5.0729,-5.0835,-5.0884,-5.086,-5.1046,-5.0992,-5.0999,-5.1004,-5.1064,-5.1082,-5.1098,-5.0889,-5.0888,-5.0887,0,0,-5.0342,-5.0378,-5.0458,-5.0496,-5.0552,-5.0569,-5.0589,-5.0642,-5.0658,-5.0753,-5.074,-5.0801,-5.0912,-5.0952,-5.0986,-5.112,-5.1105,-5.114,-5.1204,-5.1265,-5.128,-5.1293,-5.134,-5.1357,-5.1151,-5.1151,-5.1152,0,-5.039,-5.0491,-5.05,-5.0575,-5.0614,-5.0601,-5.0682,-5.0718,-5.0792,-5.0819,-5.0792,-5.0933,-5.0969,-5.1084,-5.1117,-5.1146,-5.1169,-5.1132,-5.1277,-5.1291,-5.1303,-5.1348,-5.1365,-5.1155,-5.1155,-5.1154,-5.1154,0,-5.0547,-5.0617,-5.0675,-5.0747,-5.0793,-5.0871,-5.0892,-5.0938,-5.0939,-5.0959,-5.1056,-5.11,-5.117,-5.1199,-5.1199,-5.1315,-5.1298,-5.1275,-5.1225,-5.1324,-5.1366,-5.1384,-5.116,-5.1159,-5.1158,-5.1157,0,0,-5.0686,-5.0764,-5.0785,-5.0818,-5.088,-5.0935,-5.1014,-5.1083,-5.1122,-5.1174,-5.124,-5.1336,-5.1315,-5.1355,-5.136,-5.1414,-5.1517,-5.1384,-5.1385,-5.1406,-5.1647,-5.1662,-5.1682,-5.1509,-5.1512,-5.1515,-5.1642,0,-5.0805,-5.0941,-5.0954,-5.1077,-5.1142,-5.1132,-5.12,-5.1246,-5.1269,-5.1328,-5.1353,-5.1421,-5.1388,-5.1412,-5.1465,-5.1493,-5.1565,-5.1484,-5.1569,-5.1572,-5.1553,-5.1704,-5.1721,-5.1838,-5.1658,-5.1661,-5.1663,0,-5.0961,-5.1019,-5.1148,-5.1203,-5.1231,-5.1291,-5.1357,-5.1414,-5.1467,-5.148,-5.1526,-5.1525,-5.1606,-5.1556,-5.1668,-5.1613,-5.1649,-5.1669,-5.1674,-5.1679,-5.1621,-5.1712,-5.1875,-5.1892,-5.1689,-5.1687,-5.1685,0,-5.1048,-5.1158,-5.125,-5.1279,-5.1345,-5.1388,-5.1418,-5.1468,-5.1509,-5.1567,-5.1594,-5.1661,-5.1697,-5.175,-5.1767,-5.1729,-5.1879,-5.183,-5.1891,-5.1891,-5.192,-5.1918,-5.2089,-5.1948,-5.1948,-5.1947,-5.1947,0,-5.1178,-5.1257,-5.129,-5.1346,-5.1435,-5.1449,-5.1537,-5.1565,-5.161,-5.1672,-5.1669,-5.1727,-5.1748,-5.181,-5.1825,-5.1915,-5.1932,-5.1944,-5.1947,-5.1943,-5.1941,-5.1965,-5.1956,-5.1952,-5.1951,-5.195,-5.1949,0,-5.1289,-5.1314,-5.1413,-5.1468,-5.1484,-5.1547,-5.1595,-5.165,-5.1673,-5.1751,-5.1771,-5.1806,-5.1879,-5.1903,-5.1992,-5.2002,-5.2107,-5.2103,-5.2089,-5.2088,-5.2147,-5.2141,-5.2338,-5.2365,-5.2208,-5.2209,-5.221,0,-5.1369,-5.143,-5.1492,-5.1533,-5.1565,-5.1632,-5.1674,-5.1692,-5.1737,-5.1804,-5.185,-5.1923,-5.1982,-5.21,-5.2134,-5.2202,-5.2199,-5.2264,-5.2209,-5.2204,-5.2198,-5.2193,-5.2199,-5.2272,-5.2274,-5.2275,-5.2277,0,-5.1508,-5.1518,-5.1579,-5.1646,-5.1698,-5.1751,-5.1802,-5.1837,-5.1863,-5.1913,-5.1988,-5.2034,-5.2125,-5.2197,-5.2267,-5.2299,-5.2292,-5.2294,-5.2312,-5.2307,-5.2295,-5.2301,-5.2114,-5.2289,-5.2287,-5.2287,-5.2286,-5.2285,-5.1605,-5.1658,-5.1711,-5.178,-5.1821,-5.187,-5.1924,-5.1955,-5.2017,-5.2092,-5.21,-5.2181,-5.2235,-5.2328,-5.2363,-5.2427,-5.2409,-5.2434,-5.2441,-5.2446,-5.245,-5.2288,-5.2441,-5.244,-5.244,-5.244,-5.2439,0,-5.1742,-5.1777,-5.184,-5.1913,-5.1968,-5.1958,-5.2015,-5.2062,-5.2133,-5.2184,-5.2242,-5.2329,-5.24,-5.2441,-5.2512,-5.2555,-5.2554,-5.2573,-5.2569,-5.2576,-5.2463,-5.244,-5.2573,-5.2573,-5.2573,-5.2573,-5.2573,-5.2573,-5.182,-5.1911,-5.1927,-5.2039,-5.2072,-5.2151,-5.2185,-5.223,-5.2271,-5.2368,-5.2427,-5.2453,-5.25,-5.2575,-5.264,-5.265,-5.2676,-5.2697,-5.2705,-5.2598,-5.2584,-5.2571,-5.2549,-5.2703,-5.2703,-5.2813,-5.2814,-5.2814]},{"header":{"parameterUnit":"m.s-1","parameterCategory":1,"la1":30.2991,"la2":30.254,"lo1":-89.0895,"lo2":-89.0444,"dy":0.0017,"dx":0.0017,"nx":28,"ny":28,"refTime":"2025-04-19T21:00:00:Z","depth":0,"parameterNumber":3,"parameterNumberName":"V-component_of_WINDS"},"data":[0,0,0,0,0,0,0,0,0,0,0,0,0,0,0,0,0,0,0,0,0,0,0,0,0,0,0,0,0,0,0,0,0,0,0,0,0,0,0,0,0,0,0,0,0,0,0,0,0,0,0,0,0,0,0,0,0,0,3.4873,3.4874,0,3.4928,3.4929,3.493,3.4932,3.4932,3.4931,3.493,3.4984,3.4986,3.4988,0,0,0,0,0,0,0,0,0,0,0,0,0,3.4769,3.4771,3.4873,3.4874,3.4875,3.4928,3.4929,3.493,3.4932,3.4932,3.4931,3.493,3.4983,3.4985,3.4988,0,0,0,0,0,0,0,0,0,0,0,0,0,3.4818,3.4771,3.4873,3.4883,3.4884,3.4928,3.4929,3.493,3.4933,3.4932,3.4931,3.493,3.4982,3.4985,3.4988,3.5026,0,0,3.4997,3.4999,0,0,0,0,0,0,0,0,3.4815,3.4822,3.4881,3.4882,3.4884,3.4923,3.4912,3.4962,3.4933,3.4914,3.493,3.4929,3.4964,3.4968,3.4981,3.5028,3.5031,3.4998,3.5,3.5001,3.5002,0,0,0,0,0,0,0,3.4812,3.4819,3.4895,3.4881,3.4883,3.4884,3.4889,3.4921,3.4944,3.4916,3.4916,3.4923,3.4965,3.4978,3.4982,3.5031,3.4998,3.5,3.5002,3.5003,3.5115,3.5116,0,0,0,0,0,0,3.4807,3.4817,3.4893,3.4897,3.4847,3.4886,3.4893,3.4911,3.4943,3.4947,3.4923,3.4923,3.4973,3.4978,3.4984,3.5032,3.5001,3.5004,3.5005,3.5114,3.5115,3.5116,0,0,0,0,0,0,3.4805,3.4814,3.4891,3.4857,3.4867,3.4889,3.4909,3.4913,3.4926,3.4949,3.4953,3.4933,3.4973,3.498,3.5016,3.5034,3.5005,3.5008,3.5112,3.5114,3.5116,3.5127,0,0,0,0,0,0,3.4802,3.4813,3.4828,3.4857,3.4869,3.4923,3.491,3.4914,3.4931,3.4931,3.4959,3.4963,3.4972,3.5012,3.5019,3.5037,3.501,3.5111,3.5113,3.5115,3.5125,3.5129,3.5132,0,0,0,0,0,3.4798,3.4828,3.4828,3.4838,3.4888,3.4924,3.493,3.4942,3.4933,3.4948,3.4963,3.4962,3.503,3.5015,3.5024,3.5043,3.511,3.5112,3.5115,3.5123,3.5128,3.5132,0,0,0,0,0,0,3.4798,3.4831,3.4833,3.4873,3.4896,3.4924,3.4944,3.4946,3.497,3.4969,3.4981,3.4987,3.5024,3.5037,3.5019,3.5082,3.5069,3.5073,3.5072,3.5077,3.508,3.5077,3.5013,0,0,0,0,0,3.4803,3.483,3.4858,3.489,3.4902,3.4921,3.4937,3.4944,3.4968,3.4977,3.4995,3.5017,3.5044,3.5061,3.5086,3.5127,3.5133,3.5144,3.5147,3.515,3.5154,3.5178,3.5183,3.5125,3.5125,3.5125,0,0,3.4813,3.4835,3.4851,3.4891,3.4909,3.4938,3.4929,3.4958,3.4979,3.4981,3.5017,3.5031,3.5057,3.5096,3.5114,3.5108,3.5172,3.5153,3.5155,3.5158,3.5181,3.5187,3.5192,3.5126,3.5126,3.5126,0,0,3.4846,3.4864,3.4895,3.4914,3.4943,3.4956,3.4963,3.4992,3.5001,3.5038,3.5041,3.5065,3.511,3.5129,3.5145,3.5187,3.5187,3.5195,3.5213,3.5236,3.5241,3.5245,3.5261,3.5267,3.5198,3.5198,3.5198,0,3.4854,3.4897,3.491,3.494,3.4958,3.4963,3.4994,3.5011,3.5046,3.5059,3.5052,3.511,3.5127,3.5172,3.5183,3.5194,3.5204,3.5192,3.5239,3.5244,3.5248,3.5263,3.5269,3.5199,3.5199,3.5199,3.5199,0,3.4907,3.4937,3.4958,3.4994,3.5014,3.5045,3.5062,3.5081,3.5086,3.5099,3.5137,3.5159,3.519,3.5201,3.5205,3.5246,3.5242,3.5237,3.5224,3.5254,3.5269,3.5275,3.52,3.52,3.52,3.52,0,0,3.4941,3.4985,3.4993,3.501,3.5043,3.5066,3.5097,3.5128,3.5145,3.5169,3.5196,3.5235,3.5231,3.5249,3.5256,3.5276,3.531,3.5269,3.5269,3.5277,3.5358,3.5362,3.5369,3.531,3.5311,3.5312,3.5356,0,3.4979,3.5036,3.5049,3.5097,3.5125,3.5131,3.5158,3.5181,3.5194,3.522,3.5234,3.5262,3.5254,3.5265,3.5286,3.5301,3.5326,3.5298,3.5335,3.5336,3.533,3.5377,3.5381,3.5422,3.5362,3.5363,3.5364,0,3.5031,3.5059,3.511,3.5141,3.5153,3.5178,3.5209,3.5233,3.5259,3.5268,3.5288,3.5294,3.5326,3.5311,3.5356,3.5337,3.5353,3.5363,3.5365,3.5369,3.5353,3.5384,3.5435,3.5442,3.5373,3.5372,3.5371,0,3.5053,3.5102,3.5141,3.5155,3.5191,3.5208,3.5224,3.5249,3.5268,3.5295,3.5308,3.5337,3.5353,3.5376,3.5389,3.5377,3.5434,3.542,3.5442,3.5442,3.5455,3.5454,3.551,3.5463,3.5462,3.5462,3.5462,0,3.5095,3.5126,3.5151,3.5175,3.5211,3.5225,3.526,3.5276,3.5298,3.5325,3.533,3.5355,3.537,3.5397,3.5407,3.5444,3.5451,3.5459,3.5461,3.5459,3.5458,3.547,3.5468,3.5464,3.5464,3.5463,3.5463,0,3.5126,3.5143,3.5186,3.5217,3.5226,3.5251,3.5278,3.5301,3.5315,3.5348,3.5357,3.5379,3.5411,3.5426,3.5465,3.5472,3.5514,3.5514,3.5506,3.5507,3.5529,3.5528,3.5596,3.5607,3.5551,3.5551,3.5552,0,3.5152,3.5177,3.5212,3.5231,3.5247,3.5277,3.5297,3.5312,3.5332,3.5365,3.5384,3.5417,3.5444,3.5494,3.5513,3.5543,3.5545,3.5567,3.5549,3.5547,3.5547,3.5546,3.5549,3.557,3.5571,3.5571,3.5572,0,3.5197,3.5205,3.5234,3.5267,3.5291,3.5317,3.5342,3.5357,3.5376,3.5399,3.5432,3.5453,3.5494,3.5527,3.5559,3.5574,3.5577,3.5577,3.5584,3.5583,3.5578,3.5583,3.5516,3.5576,3.5575,3.5575,3.5575,3.5575,3.5228,3.5251,3.528,3.5312,3.5333,3.5358,3.5382,3.5399,3.5428,3.5463,3.547,3.5506,3.5532,3.5576,3.5592,3.5621,3.5616,3.5625,3.5628,3.5631,3.5633,3.5572,3.5626,3.5626,3.5626,3.5626,3.5626,0,3.5275,3.5294,3.5324,3.536,3.5386,3.5387,3.5416,3.5437,3.5469,3.5494,3.5521,3.556,3.5592,3.5614,3.5646,3.5665,3.5667,3.5673,3.5672,3.5676,3.5635,3.5626,3.5671,3.5671,3.5671,3.5671,3.5671,3.5671,3.5302,3.5343,3.5354,3.5405,3.5423,3.546,3.5477,3.5499,3.5519,3.5563,3.559,3.5605,3.5629,3.5663,3.5692,3.5698,3.571,3.5717,3.5722,3.5683,3.5679,3.5674,3.5666,3.5719,3.5719,3.5762,3.5762,3.5762]}]]